Location: Ostrava
(49.8330°N, 18.2830°E)
Time: 07:58:13
(UTC+02:00)

NOAA 19 - Visible Passes

Search period start: 01 September 2015 00:00
Search period end: 11 September 2015 00:00
Orbit: 843 x 862 km, 99.0° (Epoch: 31 August)

Date Brightness Start Highest point End Pass type
(mag) Time Alt. Az. Time Alt. Az. Time Alt. Az.
01 Sep 7.1 02:18:01 10° NE 02:22:08 21° E 02:24:31 17° ESE visible
01 Sep 5.2 03:57:53 10° NNE 04:03:27 69° WNW 04:06:33 27° SSW visible
02 Sep 7.3 02:07:08 10° NE 02:10:41 18° E 02:13:00 14° ESE visible
02 Sep 5.2 03:46:35 10° NNE 03:52:12 83° WNW 03:55:03 30° SSW visible
03 Sep 7.5 01:56:27 10° NE 01:59:13 14° E 02:01:31 12° ESE visible
03 Sep 5.2 03:35:19 10° NNE 03:40:55 82° ESE 03:43:33 33° S visible
03 Sep 6.7 05:17:00 10° N 05:21:05 21° NW 05:25:01 10° W visible
04 Sep 7.7 01:46:14 10° ENE 01:47:43 11° E 01:49:32 10° E visible
04 Sep 5.4 03:24:04 10° NNE 03:29:38 68° ESE 03:32:03 35° S visible
04 Sep 6.5 05:05:31 10° N 05:09:57 24° WNW 05:14:05 11° WSW visible
05 Sep 5.7 03:12:50 10° NNE 03:18:19 56° E 03:20:32 34° SSE visible
05 Sep 6.3 04:54:03 10° N 04:58:47 29° WNW 05:02:35 14° WSW visible
06 Sep 6.0 03:01:38 10° NNE 03:06:59 46° E 03:09:02 32° SSE visible
06 Sep 6.1 04:42:37 10° N 04:47:37 34° WNW 04:51:04 17° WSW visible
07 Sep 6.3 02:50:29 10° NNE 02:55:38 37° E 02:57:32 29° SE visible
07 Sep 5.8 04:31:14 10° N 04:36:25 40° WNW 04:39:34 21° WSW visible
08 Sep 6.6 02:39:23 10° NNE 02:44:15 31° E 02:46:01 26° SE visible
08 Sep 5.6 04:19:52 10° N 04:25:13 49° WNW 04:28:04 26° SW visible
09 Sep 6.9 02:28:19 10° NE 02:32:51 25° E 02:34:31 22° ESE visible
09 Sep 5.4 04:08:31 10° N 04:14:00 59° WNW 04:16:33 31° SW visible
10 Sep 7.1 02:17:21 10° NE 02:21:25 21° E 02:23:01 19° ESE visible
10 Sep 5.2 03:57:11 10° NNE 04:02:45 71° WNW 04:05:03 36° SW visible
10 Sep 7.0 05:39:28 10° NNW 05:42:38 15° NW 05:45:36 10° W visible
